Location: Bégole
(43.1574°N, 0.3291°E)
Time: 13:18:45
(UTC+00:00)

Cosmos 1655 Rocket - Pass Details

Date: 28 January 2023
Orbit: 970 x 1006 km, 83.0° (Epoch: 19 March)

Event Time Altitude Azimuth Distance (km) Brightness Sun altitude
Rises 18:02:23 0° 355° (N) 3,705 6.9 -10.6°
Reaches altitude 10° 18:04:58 10° 359° (N) 2,747 6.2 -11.1°
Maximum altitude 18:11:12 62° 79° (E) 1,095 4.0 -12.2°
Drops below altitude 10° 18:17:20 10° 160° (SSE) 2,709 6.3 -13.3°
Sets 18:19:51 0° 164° (SSE) 3,650 7.0 -13.7°
